TimePDT,TemperatureF,Dew PointF,Humidity,Sea Level PressureIn,VisibilityMPH,Wind Direction,Wind SpeedMPH,Gust SpeedMPH,PrecipitationIn,Events,Conditions,WindDirDegrees,DateUTC
12:53 AM,71.1,48.9,45,29.79,10.0,Calm,Calm,-,N/A,,Clear,0,2013-09-23 07:53:00
1:53 AM,71.1,48.9,45,29.80,10.0,NW,3.5,-,N/A,,Clear,320,2013-09-23 08:53:00
2:53 AM,69.1,48.9,49,29.80,10.0,WNW,4.6,-,N/A,,Clear,290,2013-09-23 09:53:00
3:53 AM,68.0,48.9,50,29.81,10.0,NNW,4.6,-,N/A,,Clear,340,2013-09-23 10:53:00
4:53 AM,66.0,48.0,52,29.82,10.0,NNW,6.9,-,N/A,,Clear,340,2013-09-23 11:53:00
5:53 AM,64.9,46.9,52,29.83,10.0,Calm,Calm,-,N/A,,Clear,0,2013-09-23 12:53:00
6:53 AM,66.0,46.9,50,29.85,10.0,Calm,Calm,-,N/A,,Clear,0,2013-09-23 13:53:00
7:53 AM,72.0,32.0,23,29.86,10.0,North,4.6,-,N/A,,Clear,350,2013-09-23 14:53:00
8:53 AM,80.1,30.9,17,29.86,10.0,Calm,Calm,-,N/A,,Clear,0,2013-09-23 15:53:00
9:53 AM,89.1,33.1,14,29.87,10.0,Calm,Calm,-,N/A,,Clear,0,2013-09-23 16:53:00
10:53 AM,91.0,27.0,10,29.87,10.0,Variable,3.5,-,N/A,,Clear,0,2013-09-23 17:53:00
11:53 AM,93.0,26.1,9,29.86,10.0,Variable,4.6,-,N/A,,Clear,0,2013-09-23 18:53:00
12:53 PM,93.9,26.1,9,29.85,10.0,Variable,5.8,-,N/A,,Clear,0,2013-09-23 19:53:00
1:53 PM,96.1,26.1,8,29.82,10.0,Variable,6.9,-,N/A,,Clear,0,2013-09-23 20:53:00
2:53 PM,97.0,28.0,9,29.81,10.0,ESE,12.7,17.3,N/A,,Clear,110,2013-09-23 21:53:00
3:53 PM,97.0,28.0,9,29.80,10.0,SSE,6.9,-,N/A,,Clear,160,2013-09-23 22:53:00
4:53 PM,97.0,28.9,9,29.79,10.0,ESE,8.1,-,N/A,,Clear,110,2013-09-23 23:53:00
5:53 PM,95.0,30.0,10,29.79,10.0,SE,9.2,-,N/A,,Clear,130,2013-09-24 00:53:00
6:53 PM,91.9,32.0,12,29.80,10.0,ESE,4.6,-,N/A,,Clear,110,2013-09-24 01:53:00
7:53 PM,88.0,36.0,16,29.82,10.0,East,4.6,-,N/A,,Clear,80,2013-09-24 02:53:00
8:53 PM,86.0,37.0,18,29.84,10.0,Calm,Calm,-,N/A,,Clear,0,2013-09-24 03:53:00
9:53 PM,82.0,37.9,21,29.86,10.0,Calm,Calm,-,N/A,,Clear,0,2013-09-24 04:53:00
10:53 PM,80.1,34.0,19,29.86,10.0,NW,3.5,-,N/A,,Clear,320,2013-09-24 05:53:00
11:53 PM,80.1,37.9,22,29.86,10.0,NNW,10.4,-,N/A,,Clear,330,2013-09-24 06:53:00